Regional Weather Roundup
Issued by NWS

Home | Current Version | Previous Version | Graphics & Text | Print | Product List | Glossary On
Versions: 1 2 3 4 5 6 7 8 9 10 11 12 13 14 15 16 17 18 19 20 21 22 23 24 25 26 27 28 29 30 31 32 33 34 35 36 37 38 39 40 41 42 43 44 45 46 47 48 49 50
000
ASUS43 KLOT 010012
RWRIL

ILLINOIS REGIONAL WEATHER ROUNDUP
NATIONAL WEATHER SERVICE CHICAGO/ROMEOVILLE IL
700 PM CDT TUE JUN 30 2015

NOTE: "FAIR" INDICATES FEW OR NO CLOUDS BELOW 12,000 FEET WITH NO
SIGNIFICANT WEATHER AND/OR OBSTRUCTIONS TO VISIBILITY.

* THESE STATIONS ARE NOT UNDER NWS QUALITY CONTROL. THEY ALSO MAY NOT
  REPORT WEATHER SUCH AS PRECIPITATION OR FOG.

ILZ001-002-007-009-015-016-024-010100-
NORTHWEST ILLINOIS

CITY           SKY/WX    TMP DP  RH WIND       PRES   REMARKS
MOLINE         MOSUNNY   79  62  56 NW5       29.84S HX  80
6HR MIN TEMP:  79; 6HR MAX TEMP:  82;

STERLING*      SUNNY     75  61  60 N10       29.86R
SAVANNA*       SUNNY     76  60  57 N6        29.86S
$$

ILZ003-004-008-010-011-017-018-010100-
NORTH CENTRAL ILLINOIS

CITY           SKY/WX    TMP DP  RH WIND       PRES   REMARKS
ROCKFORD       PTSUNNY   74  59  59 N6        29.86S
6HR MIN TEMP:  73; 6HR MAX TEMP:  77;

FREEPORT*      MOSUNNY   71  61  70 NW5       29.87S
ROCHELLE*      SUNNY     73  61  65 NW6       29.86S
DE KALB*       CLOUDY    72  60  65 N5        29.86S
PERU*          MOSUNNY   75  61  61 N7        29.86R
$$

ILZ005-006-012>014-019>023-010100-
NORTHEAST ILLINOIS

CITY           SKY/WX    TMP DP  RH WIND       PRES   REMARKS
CHICAGO-OHARE  MOSUNNY   66  58  75 NE10      29.85R
6HR MIN TEMP:  66; 6HR MAX TEMP:  77;

CHICAGO-MIDWAY MOSUNNY   68  59  73 NE10      29.85R
6HR MIN TEMP:  68; 6HR MAX TEMP:  80;

AURORA         MOSUNNY   74  59  59 N8        29.85S
6HR MIN TEMP:  74; 6HR MAX TEMP:  77;

LANSING*       SUNNY     66  57  72 N10       29.85S
JOLIET*        MOSUNNY   76  60  57 NW3       29.84S
WAUKEGAN       MOSUNNY   59  55  87 NE9       29.86
DUPAGE AIRPORT MOSUNNY   71  61  70 E9        29.84R
6HR MIN TEMP:  71; 6HR MAX TEMP:  77;

KANKAKEE*      SUNNY     76  63  64 NW9       29.84R
WHEELING       SUNNY     64  57  78 NE8       29.86F
6HR MIN TEMP:  64; 6HR MAX TEMP:  77;

MORRIS*        MOSUNNY   74  62  64 CALM      29.83S
ROMEOVILLE*    MOSUNNY   74  59  58 NW10      29.84S
NORTHERLY ISL    N/A     60  57  89 N9          N/A
$$

LMZ740>746-010100-
SOUTHERN LAKE MICHIGAN

STATION/POSITION SKY/WX   TEMP    WIND        PRES    VSBY  WAVE
                          AIR SEA DIR/SP/G                  HT/PER
                          (F)     (DEG/KT/KT) (MB)    (MI)  (FT/S)
HARRISON CRIB              58     360/ 11/ 14   N/A
BURNHAM HARBOR             59      10/ 10/ 13   N/A
CALUMET HARBOR             61     340/ 10/ 14   N/A
BURNS HARBOR               64      30/ 10/ 14 1010.8S
MICHIGAN CITY              63     360/ 11/ 13   N/A
MICHIGAN CITY 6N           59 65   40/  8/ 12   N/A           2/ 3
ST. JOSEPH                 61 65                N/A           2/ 3
$$

ILZ025>027-034>036-040-047-049-050-058-095>099-010100-
WEST-CENTRAL ILLINOIS

CITY           SKY/WX    TMP DP  RH WIND       PRES   REMARKS
QUINCY         PTSUNNY   78  69  73 NW3       29.86S HX  80
GALESBURG*     MOSUNNY   76  65  68 CALM      29.86S
MACOMB*        PTSUNNY   76  67  71 NW3       29.87F
JACKSONVILLE*  MOSUNNY   78  72  82 W3        29.85S HX  81
PITTSFIELD*    PTSUNNY   80  69  69 NW3       29.87S HX  82
$$

ILZ028>032-037-038-041>044-048-051>054-059>061-010100-
CENTRAL ILLINOIS

CITY           SKY/WX    TMP DP  RH WIND       PRES   REMARKS
PONTIAC        MOSUNNY   77  66  70 N8        29.85R
BLOOMINGTON    MOSUNNY   79  64  59 NW12      29.86R HX  81
DECATUR        MOSUNNY   80  66  62 NW9       29.83R HX  82
PEORIA         SUNNY     81  63  54 VRB6      29.84F HX  82
6HR MIN TEMP:  81; 6HR MAX TEMP:  84;

LACON*         PTSUNNY   77  64  64 N3        29.84R
LINCOLN*       MOSUNNY   80  65  59 NW3       29.84R HX  82
SPRINGFIELD    MOSUNNY   81  69  67 NW8       29.84R HX  84
6HR MIN TEMP:  81; 6HR MAX TEMP:  85;

TAYLORVILLE    SUNNY     77  68  73 W7        29.83R
$$

ILZ033-039-045-046-055>057-062-063-010100-
EAST-CENTRAL ILLINOIS

CITY           SKY/WX    TMP DP  RH WIND       PRES   REMARKS
CHAMPAIGN      MOSUNNY   78  66  66 NW8       29.83R HX  80
DANVILLE*      SUNNY     76  64  65 NW8       29.80S HAZE
RANTOUL*       SUNNY     79  65  63 NW9       29.83R HX  81
MATTOON        CLOUDY    71  68  90 CALM      29.83R
PARIS*         MOSUNNY   75  67  76 W8        29.83S
$$

ILZ079-100>102-010100-
SOUTHWEST ILLINOIS

CITY           SKY/WX    TMP DP  RH WIND       PRES   REMARKS
ALTON          SUNNY     79  72  78 W7        29.85S HX  82
BELLEVILLE     MOSUNNY   81  69  67 W7        29.84R HX  84
CAHOKIA*       MOSUNNY   83  66  56 W10       29.85S HX  85
SPARTA*        MOSUNNY   80  69  69 W3        29.87S HX  83
$$

ILZ064>066-069>071-074>076-080>082-084>086-088>090-092>094-010100-
SOUTH-CENTRAL ILLINOIS

CITY           SKY/WX    TMP DP  RH WIND       PRES   REMARKS
CARBONDALE     SUNNY     81  68  64 W5        29.86S HX  84
6HR MIN TEMP:  81; 6HR MAX TEMP:  84;

CAIRO*         SUNNY     82  69  64 W6        29.87R HX  85
EFFINGHAM*     SUNNY     80  64  57 W8        29.84S HX  81
MARION         SUNNY     81  70  69 CALM      29.87R HX  84
MT. VERNON     SUNNY     81  64  57 W6        29.85S HX  82
CENTRALIA*     MOSUNNY   79  66  64 W5        29.85R HX  81
SALEM*         SUNNY     82  68  62 W5        29.85R HX  84
METROPOLIS*    SUNNY     82  70  68 CALM      29.88R HX  85
$$

ILZ067-068-072-073-078-083-087-091-010100-
SOUTHEAST ILLINOIS

CITY           SKY/WX    TMP DP  RH WIND       PRES   REMARKS
LAWRENCEVILLE  MOSUNNY   79  67  66 W8        29.83R HX  81
FLORA*         MOSUNNY   79  68  67 SW6       29.84S HX  81
FAIRFIELD*     SUNNY     80  68  66 SW5       29.83S HX  82
HARRISBURG*    SUNNY     80  70  72 SW3       29.86S HX  83
ROBINSON*      PTSUNNY   77  66  69 W5        29.83R
CARMI*         SUNNY     80  64  57 SW5       29.84S HX  81
$$

ABBREVIATIONS USED IN REMARKS
   TC - TEMPERATURE IN CELSIUS
  WCI - WIND CHILL INDEX
   HX - HEAT INDEX
  VSB - VISIBILITY
$$



USA.gov is the U.S. government's official web portal to all federal, state and local government web resources and services.